Year,Month,Day,Hour,Minute,Value (Times are PST for temperature in C)
2009,07,29,00,00,23.90
2009,07,29,00,01,23.90
2009,07,29,00,02,23.90
2009,07,29,00,03,23.80
2009,07,29,00,04,23.80
2009,07,29,00,05,23.80
2009,07,29,00,06,23.80
2009,07,29,00,07,23.80
2009,07,29,00,08,23.80
2009,07,29,00,09,23.80
2009,07,29,00,10,23.70
2009,07,29,00,11,23.70
2009,07,29,00,12,23.70
2009,07,29,00,13,23.70
2009,07,29,00,14,23.70
2009,07,29,00,15,23.70
2009,07,29,00,16,23.60
2009,07,29,00,17,23.60
2009,07,29,00,18,23.60
2009,07,29,00,19,23.60
2009,07,29,00,20,23.60
2009,07,29,00,21,23.50
2009,07,29,00,22,23.50
2009,07,29,00,23,23.50
2009,07,29,00,24,23.50
2009,07,29,00,25,23.40
2009,07,29,00,26,23.40
2009,07,29,00,27,23.40
2009,07,29,00,28,23.40
2009,07,29,00,29,23.40
2009,07,29,00,30,23.40
2009,07,29,00,31,23.40
2009,07,29,00,32,23.30
2009,07,29,00,33,23.30
2009,07,29,00,34,23.30
2009,07,29,00,35,23.30
2009,07,29,00,36,23.30
2009,07,29,00,37,23.30
2009,07,29,00,38,23.30
2009,07,29,00,39,23.30
2009,07,29,00,40,23.20
2009,07,29,00,41,23.20
2009,07,29,00,42,23.20
2009,07,29,00,43,23.20
2009,07,29,00,44,23.20
2009,07,29,00,45,23.20
2009,07,29,00,46,23.20
2009,07,29,00,47,23.20
2009,07,29,00,48,23.20
2009,07,29,00,49,23.10
2009,07,29,00,50,23.10
2009,07,29,00,51,23.10
2009,07,29,00,52,23.10
2009,07,29,00,53,23.10
2009,07,29,00,54,23.10
2009,07,29,00,55,23.10
2009,07,29,00,56,23.10
2009,07,29,00,57,23.10
2009,07,29,00,58,23.10
2009,07,29,00,59,23.00
2009,07,29,01,00,23.00
2009,07,29,01,01,23.00
2009,07,29,01,02,23.00
2009,07,29,01,03,23.00
2009,07,29,01,04,23.00
2009,07,29,01,05,22.90
2009,07,29,01,06,22.90
2009,07,29,01,07,22.90
2009,07,29,01,08,22.90
2009,07,29,01,09,22.90
2009,07,29,01,10,22.90
2009,07,29,01,11,22.90
2009,07,29,01,12,22.90
2009,07,29,01,13,22.80
2009,07,29,01,14,22.80
2009,07,29,01,15,22.80
2009,07,29,01,16,22.80
2009,07,29,01,17,22.80
2009,07,29,01,18,22.80
2009,07,29,01,19,22.80
2009,07,29,01,20,22.80
2009,07,29,01,21,22.80
2009,07,29,01,22,22.70
2009,07,29,01,23,22.70
2009,07,29,01,24,22.70
2009,07,29,01,25,22.70
2009,07,29,01,26,22.70
2009,07,29,01,27,22.70
2009,07,29,01,28,22.70
2009,07,29,01,29,22.70
2009,07,29,01,30,22.60
2009,07,29,01,31,22.60
2009,07,29,01,32,22.60
2009,07,29,01,33,22.60
2009,07,29,01,34,22.60
2009,07,29,01,35,22.60
2009,07,29,01,36,22.60
2009,07,29,01,37,22.60
2009,07,29,01,38,22.60
2009,07,29,01,39,22.60
2009,07,29,01,40,22.60
2009,07,29,01,41,22.50
2009,07,29,01,42,22.50
2009,07,29,01,43,22.50
2009,07,29,01,44,22.50
2009,07,29,01,45,22.50
2009,07,29,01,46,22.50
2009,07,29,01,47,22.50
2009,07,29,01,48,22.40
2009,07,29,01,49,22.40
2009,07,29,01,50,22.40
2009,07,29,01,51,22.40
2009,07,29,01,52,22.40
2009,07,29,01,53,22.40
2009,07,29,01,54,22.40
2009,07,29,01,55,22.40
2009,07,29,01,56,22.40
2009,07,29,01,57,22.40
2009,07,29,01,58,22.40
2009,07,29,01,59,22.30
2009,07,29,02,00,22.30
2009,07,29,02,01,22.30
2009,07,29,02,02,22.30
2009,07,29,02,03,22.30
2009,07,29,02,04,22.30
2009,07,29,02,05,22.30
2009,07,29,02,06,22.20
2009,07,29,02,07,22.20
2009,07,29,02,08,22.20
2009,07,29,02,09,22.20
2009,07,29,02,10,22.20
2009,07,29,02,11,22.20
2009,07,29,02,12,22.10
2009,07,29,02,13,22.10
2009,07,29,02,14,22.10
2009,07,29,02,15,22.10
2009,07,29,02,16,22.10
2009,07,29,02,17,22.10
2009,07,29,02,18,22.10
2009,07,29,02,19,22.10
2009,07,29,02,20,22.00
2009,07,29,02,21,22.00
2009,07,29,02,22,22.00
2009,07,29,02,23,22.00
2009,07,29,02,24,22.00
2009,07,29,02,25,21.90
2009,07,29,02,26,21.90
2009,07,29,02,27,21.90
2009,07,29,02,28,21.90
2009,07,29,02,29,21.90
2009,07,29,02,30,21.90
2009,07,29,02,31,21.80
2009,07,29,02,32,21.80
2009,07,29,02,33,21.80
2009,07,29,02,34,21.80
2009,07,29,02,35,21.80
2009,07,29,02,36,21.80
2009,07,29,02,37,21.80
2009,07,29,02,38,21.80
2009,07,29,02,39,21.80
2009,07,29,02,40,21.80
2009,07,29,02,41,21.80
2009,07,29,02,42,21.80
2009,07,29,02,43,21.70
2009,07,29,02,44,21.70
2009,07,29,02,45,21.70
2009,07,29,02,46,21.70
2009,07,29,02,47,21.70
2009,07,29,02,48,21.70
2009,07,29,02,49,21.70
2009,07,29,02,50,21.70
2009,07,29,02,51,21.70
2009,07,29,02,52,21.70
2009,07,29,02,53,21.70
2009,07,29,02,54,21.70
2009,07,29,02,55,21.70
2009,07,29,02,56,21.70
2009,07,29,02,57,21.70
2009,07,29,02,58,21.70
2009,07,29,02,59,21.70
2009,07,29,03,00,21.70
2009,07,29,03,01,21.70
2009,07,29,03,02,21.70
2009,07,29,03,03,21.70
2009,07,29,03,04,21.70
2009,07,29,03,05,21.70
2009,07,29,03,06,21.60
2009,07,29,03,07,21.60
2009,07,29,03,08,21.60
2009,07,29,03,09,21.60
2009,07,29,03,10,21.60
2009,07,29,03,11,21.60
2009,07,29,03,12,21.60
2009,07,29,03,13,21.50
2009,07,29,03,14,21.50
2009,07,29,03,15,21.50
2009,07,29,03,16,21.50
2009,07,29,03,17,21.50
2009,07,29,03,18,21.40
2009,07,29,03,19,21.40
2009,07,29,03,20,21.40
2009,07,29,03,21,21.40
2009,07,29,03,22,21.40
2009,07,29,03,23,21.40
2009,07,29,03,24,21.40
2009,07,29,03,25,21.40
2009,07,29,03,26,21.40
2009,07,29,03,27,21.30
2009,07,29,03,28,21.30
2009,07,29,03,29,21.30
2009,07,29,03,30,21.30
2009,07,29,03,31,21.30
2009,07,29,03,32,21.30
2009,07,29,03,33,21.30
2009,07,29,03,34,21.30
2009,07,29,03,35,21.30
2009,07,29,03,36,21.30
2009,07,29,03,37,21.30
2009,07,29,03,38,21.30
2009,07,29,03,39,21.30
2009,07,29,03,40,21.30
2009,07,29,03,41,21.30
2009,07,29,03,42,21.30
2009,07,29,03,43,21.20
2009,07,29,03,44,21.20
2009,07,29,03,45,21.20
2009,07,29,03,46,21.20
2009,07,29,03,47,21.20
2009,07,29,03,48,21.20
2009,07,29,03,49,21.20
2009,07,29,03,50,21.20
2009,07,29,03,51,21.20
2009,07,29,03,52,21.20
2009,07,29,03,53,21.20
2009,07,29,03,54,21.10
2009,07,29,03,55,21.10
2009,07,29,03,56,21.10
2009,07,29,03,57,21.10
2009,07,29,03,58,21.10
2009,07,29,03,59,21.10
2009,07,29,04,00,21.10
2009,07,29,04,01,21.10
2009,07,29,04,02,21.10
2009,07,29,04,03,21.10
2009,07,29,04,04,21.00
2009,07,29,04,05,21.00
2009,07,29,04,06,21.00
2009,07,29,04,07,21.00
2009,07,29,04,08,21.00
2009,07,29,04,09,20.90
2009,07,29,04,10,20.90
2009,07,29,04,11,20.90
2009,07,29,04,12,20.90
2009,07,29,04,13,20.90
2009,07,29,04,14,20.90
2009,07,29,04,15,20.90
2009,07,29,04,16,20.90
2009,07,29,04,17,20.90
2009,07,29,04,18,20.80
2009,07,29,04,19,20.80
2009,07,29,04,20,20.80
2009,07,29,04,21,20.80
2009,07,29,04,22,20.80
2009,07,29,04,23,20.80
2009,07,29,04,24,20.80
2009,07,29,04,25,20.80
2009,07,29,04,26,20.80
2009,07,29,04,27,20.80
2009,07,29,04,28,20.80
2009,07,29,04,29,20.80
2009,07,29,04,30,20.80
2009,07,29,04,31,20.70
2009,07,29,04,32,20.70
2009,07,29,04,33,20.70
2009,07,29,04,34,20.70
2009,07,29,04,35,20.70
2009,07,29,04,36,20.70
2009,07,29,04,37,20.70
2009,07,29,04,38,20.70
2009,07,29,04,39,20.70
2009,07,29,04,40,20.70
2009,07,29,04,41,20.70
2009,07,29,04,42,20.70
2009,07,29,04,43,20.70
2009,07,29,04,44,20.70
2009,07,29,04,45,20.70
2009,07,29,04,46,20.70
2009,07,29,04,47,20.70
2009,07,29,04,48,20.70
2009,07,29,04,49,20.70
2009,07,29,04,50,20.60
2009,07,29,04,51,20.60
2009,07,29,04,52,20.60
2009,07,29,04,53,20.60
2009,07,29,04,54,20.60
2009,07,29,04,55,20.60
2009,07,29,04,56,20.60
2009,07,29,04,57,20.60
2009,07,29,04,58,20.50
2009,07,29,04,59,20.50
2009,07,29,05,00,20.50
2009,07,29,05,01,20.50
2009,07,29,05,02,20.50
2009,07,29,05,03,20.50
2009,07,29,05,04,20.50
2009,07,29,05,05,20.50
2009,07,29,05,06,20.50
2009,07,29,05,07,20.50
2009,07,29,05,08,20.40
2009,07,29,05,09,20.40
2009,07,29,05,10,20.40
2009,07,29,05,11,20.40
2009,07,29,05,12,20.40
2009,07,29,05,13,20.40
2009,07,29,05,14,20.40
2009,07,29,05,15,20.40
2009,07,29,05,16,20.40
2009,07,29,05,17,20.40
2009,07,29,05,18,20.40
2009,07,29,05,19,20.30
2009,07,29,05,20,20.30
2009,07,29,05,21,20.30
2009,07,29,05,22,20.30
2009,07,29,05,23,20.30
2009,07,29,05,24,20.30
2009,07,29,05,25,20.30
2009,07,29,05,26,20.30
2009,07,29,05,27,20.30
2009,07,29,05,28,20.30
2009,07,29,05,29,20.30
2009,07,29,05,30,20.30
2009,07,29,05,31,20.30
2009,07,29,05,32,20.20
2009,07,29,05,33,20.20
2009,07,29,05,34,20.20
2009,07,29,05,35,20.20
2009,07,29,05,36,20.20
2009,07,29,05,37,20.20
2009,07,29,05,38,20.20
2009,07,29,05,39,20.20
2009,07,29,05,40,20.20
2009,07,29,05,41,20.20
2009,07,29,05,42,20.10
2009,07,29,05,43,20.10
2009,07,29,05,44,20.10
2009,07,29,05,45,20.10
2009,07,29,05,46,20.10
2009,07,29,05,47,20.10
2009,07,29,05,48,20.10
2009,07,29,05,49,20.10
2009,07,29,05,50,20.10
2009,07,29,05,51,20.10
2009,07,29,05,52,20.10
2009,07,29,05,53,20.10
2009,07,29,05,54,20.10
2009,07,29,05,55,20.00
2009,07,29,05,56,20.00
2009,07,29,05,57,20.00
2009,07,29,05,58,20.00
2009,07,29,05,59,20.00
2009,07,29,06,00,20.00
2009,07,29,06,01,20.00
2009,07,29,06,02,20.00
2009,07,29,06,03,20.00
2009,07,29,06,04,19.90
2009,07,29,06,05,19.90
2009,07,29,06,06,19.90
2009,07,29,06,07,19.90
2009,07,29,06,08,19.90
2009,07,29,06,09,19.90
2009,07,29,06,10,19.90
2009,07,29,06,11,19.90
2009,07,29,06,12,19.90
2009,07,29,06,13,19.90
2009,07,29,06,14,19.90
2009,07,29,06,15,19.90
2009,07,29,06,16,19.80
2009,07,29,06,17,19.80
2009,07,29,06,18,19.80
2009,07,29,06,19,19.80
2009,07,29,06,20,19.80
2009,07,29,06,21,19.80
2009,07,29,06,22,19.80
2009,07,29,06,23,19.80
2009,07,29,06,24,19.80
2009,07,29,06,25,19.80
2009,07,29,06,26,19.80
2009,07,29,06,27,19.80
2009,07,29,06,28,19.80
2009,07,29,06,29,19.80
2009,07,29,06,30,19.80
2009,07,29,06,31,19.80
2009,07,29,06,32,19.80
2009,07,29,06,33,19.80
2009,07,29,06,34,19.80
2009,07,29,06,35,19.80
2009,07,29,06,36,19.80
2009,07,29,06,37,19.80
2009,07,29,06,38,19.80
2009,07,29,06,39,19.80
2009,07,29,06,40,19.80
2009,07,29,06,41,19.80
2009,07,29,06,42,19.80
2009,07,29,06,43,19.80
2009,07,29,06,44,19.80
2009,07,29,06,45,19.80
2009,07,29,06,46,19.80
2009,07,29,06,47,19.80
2009,07,29,06,48,19.80
2009,07,29,06,49,19.80
2009,07,29,06,50,19.80
2009,07,29,06,51,19.80
2009,07,29,06,52,19.80
2009,07,29,06,53,19.80
2009,07,29,06,54,19.80
2009,07,29,06,55,19.80
2009,07,29,06,56,19.80
2009,07,29,06,57,19.80
2009,07,29,06,58,19.80
2009,07,29,06,59,19.80
2009,07,29,07,00,19.90
2009,07,29,07,01,19.90
2009,07,29,07,02,19.90
2009,07,29,07,03,19.90
2009,07,29,07,04,19.90
2009,07,29,07,05,19.90
2009,07,29,07,06,19.90
2009,07,29,07,07,19.90
2009,07,29,07,08,19.90
2009,07,29,07,09,19.90
2009,07,29,07,10,19.90
2009,07,29,07,11,19.90
2009,07,29,07,12,20.00
2009,07,29,07,13,20.00
2009,07,29,07,14,20.00
2009,07,29,07,15,20.00
2009,07,29,07,16,20.00
2009,07,29,07,17,20.00
2009,07,29,07,18,20.00
2009,07,29,07,19,20.00
2009,07,29,07,20,20.00
2009,07,29,07,21,20.00
2009,07,29,07,22,20.00
2009,07,29,07,23,20.00
2009,07,29,07,24,20.00
2009,07,29,07,25,20.00
2009,07,29,07,26,20.00
2009,07,29,07,27,20.00
2009,07,29,07,28,20.00
2009,07,29,07,29,20.00
2009,07,29,07,30,20.10
2009,07,29,07,31,20.10
2009,07,29,07,32,20.10
2009,07,29,07,33,20.10
2009,07,29,07,34,20.10
2009,07,29,07,35,20.10
2009,07,29,07,36,20.10
2009,07,29,07,37,20.20
2009,07,29,07,38,20.20
2009,07,29,07,39,20.20
2009,07,29,07,40,20.20
2009,07,29,07,41,20.30
2009,07,29,07,42,20.30
2009,07,29,07,43,20.30
2009,07,29,07,44,20.30
2009,07,29,07,45,20.40
2009,07,29,07,46,20.40
2009,07,29,07,47,20.40
2009,07,29,07,48,20.40
2009,07,29,07,49,20.40
2009,07,29,07,50,20.40
2009,07,29,07,51,20.40
2009,07,29,07,52,20.40
2009,07,29,07,53,20.50
2009,07,29,07,54,20.50
2009,07,29,07,55,20.50
2009,07,29,07,56,20.50
2009,07,29,07,57,20.50
2009,07,29,07,58,20.60
2009,07,29,07,59,20.60
2009,07,29,08,00,20.60
2009,07,29,08,01,20.60
2009,07,29,08,02,20.60
2009,07,29,08,03,20.60
2009,07,29,08,04,20.60
2009,07,29,08,05,20.60
2009,07,29,08,06,20.60
2009,07,29,08,07,20.60
2009,07,29,08,08,20.70
2009,07,29,08,09,20.70
2009,07,29,08,10,20.70
2009,07,29,08,11,20.80
2009,07,29,08,12,20.80
2009,07,29,08,13,20.80
2009,07,29,08,14,20.90
2009,07,29,08,15,20.90
2009,07,29,08,16,20.90
2009,07,29,08,17,21.00
2009,07,29,08,18,21.00
2009,07,29,08,19,21.00
2009,07,29,08,20,21.10
2009,07,29,08,21,21.10
2009,07,29,08,22,21.10
2009,07,29,08,23,21.10
2009,07,29,08,24,21.10
2009,07,29,08,25,21.20
2009,07,29,08,26,21.20
2009,07,29,08,27,21.20
2009,07,29,08,28,21.20
2009,07,29,08,29,21.30
2009,07,29,08,30,21.30
2009,07,29,08,31,21.40
2009,07,29,08,32,21.40
2009,07,29,08,33,21.50
2009,07,29,08,34,21.50
2009,07,29,08,35,21.60
2009,07,29,08,36,21.60
2009,07,29,08,37,21.70
2009,07,29,08,38,21.80
2009,07,29,08,39,21.80
2009,07,29,08,40,21.80
2009,07,29,08,41,21.80
2009,07,29,08,42,21.90
2009,07,29,08,43,22.00
2009,07,29,08,44,22.00
2009,07,29,08,45,22.10
2009,07,29,08,46,22.10
2009,07,29,08,47,22.20
2009,07,29,08,48,22.20
2009,07,29,08,49,22.20
2009,07,29,08,50,22.30
2009,07,29,08,51,22.30
2009,07,29,08,52,22.40
2009,07,29,08,53,22.50
2009,07,29,08,54,22.50
2009,07,29,08,55,22.60
2009,07,29,08,56,22.60
2009,07,29,08,57,22.70
2009,07,29,08,58,22.80
2009,07,29,08,59,22.80
2009,07,29,09,00,22.80
2009,07,29,09,01,22.90
2009,07,29,09,02,23.00
2009,07,29,09,03,23.00
2009,07,29,09,04,23.10
2009,07,29,09,05,23.10
2009,07,29,09,06,23.20
2009,07,29,09,07,23.30
2009,07,29,09,08,23.30
2009,07,29,09,09,23.40
2009,07,29,09,10,23.50
2009,07,29,09,11,23.50
2009,07,29,09,12,23.60
2009,07,29,09,13,23.70
2009,07,29,09,14,23.70
2009,07,29,09,15,23.70
2009,07,29,09,16,23.80
2009,07,29,09,17,23.80
2009,07,29,09,18,23.90
2009,07,29,09,19,24.00
2009,07,29,09,20,24.10
2009,07,29,09,21,24.20
2009,07,29,09,22,24.20
2009,07,29,09,23,24.30
2009,07,29,09,24,24.40
2009,07,29,09,25,24.50
2009,07,29,09,26,24.50
2009,07,29,09,27,24.60
2009,07,29,09,28,24.70
2009,07,29,09,29,24.70
2009,07,29,09,30,24.80
2009,07,29,09,31,24.80
2009,07,29,09,32,25.00
2009,07,29,09,33,25.00
2009,07,29,09,34,25.10
2009,07,29,09,35,25.20
2009,07,29,09,36,25.30
2009,07,29,09,37,25.40
2009,07,29,09,38,25.50
2009,07,29,09,39,25.60
2009,07,29,09,40,25.70
2009,07,29,09,41,25.80
2009,07,29,09,42,25.90
2009,07,29,09,43,26.00
2009,07,29,09,44,26.10
2009,07,29,09,45,26.20
2009,07,29,09,46,26.20
2009,07,29,09,47,26.30
2009,07,29,09,48,26.40
2009,07,29,09,49,26.50
2009,07,29,09,50,26.60
2009,07,29,09,51,26.70
2009,07,29,09,52,26.80
2009,07,29,09,53,26.90
2009,07,29,09,54,27.00
2009,07,29,09,55,27.00
2009,07,29,09,56,27.10
2009,07,29,09,57,27.10
2009,07,29,09,58,27.10
2009,07,29,09,59,27.20
2009,07,29,10,00,27.20
2009,07,29,10,01,27.30
2009,07,29,10,02,27.30
2009,07,29,10,03,27.30
2009,07,29,10,04,27.30
2009,07,29,10,05,27.40
2009,07,29,10,06,27.40
2009,07,29,10,07,27.50
2009,07,29,10,08,27.60
2009,07,29,10,09,27.70
2009,07,29,10,10,27.70
2009,07,29,10,11,27.80
2009,07,29,10,12,27.80
2009,07,29,10,13,27.80
2009,07,29,10,14,27.90
2009,07,29,10,15,27.90
2009,07,29,10,16,27.90
2009,07,29,10,17,27.90
2009,07,29,10,18,28.00
2009,07,29,10,19,28.00
2009,07,29,10,20,28.00
2009,07,29,10,21,28.10
2009,07,29,10,22,28.10
2009,07,29,10,23,28.10
2009,07,29,10,24,28.10
2009,07,29,10,25,28.10
2009,07,29,10,26,28.10
2009,07,29,10,27,28.20
2009,07,29,10,28,28.20
2009,07,29,10,29,28.20
2009,07,29,10,30,28.20
2009,07,29,10,31,28.30
2009,07,29,10,32,28.30
2009,07,29,10,33,28.30
2009,07,29,10,34,28.40
2009,07,29,10,35,28.40
2009,07,29,10,36,28.50
2009,07,29,10,37,28.50
2009,07,29,10,38,28.60
2009,07,29,10,39,28.70
2009,07,29,10,40,28.80
2009,07,29,10,41,28.90
2009,07,29,10,42,29.00
2009,07,29,10,43,29.00
2009,07,29,10,44,29.10
2009,07,29,10,45,29.20
2009,07,29,10,46,29.20
2009,07,29,10,47,29.30
2009,07,29,10,48,29.40
2009,07,29,10,49,29.40
2009,07,29,10,50,29.50
2009,07,29,10,51,29.60
2009,07,29,10,52,29.60
2009,07,29,10,53,29.70
2009,07,29,10,54,29.80
2009,07,29,10,55,29.80
2009,07,29,10,56,29.90
2009,07,29,10,57,29.90
2009,07,29,10,58,30.00
2009,07,29,10,59,30.10
2009,07,29,11,00,30.10
2009,07,29,11,01,30.10
2009,07,29,11,02,30.20
2009,07,29,11,03,30.20
2009,07,29,11,04,30.30
2009,07,29,11,05,30.40
2009,07,29,11,06,30.40
2009,07,29,11,07,30.50
2009,07,29,11,08,30.60
2009,07,29,11,09,30.60
2009,07,29,11,10,30.70
2009,07,29,11,11,30.70
2009,07,29,11,12,30.80
2009,07,29,11,13,30.80
2009,07,29,11,14,30.90
2009,07,29,11,15,30.90
2009,07,29,11,16,31.00
2009,07,29,11,17,31.10
2009,07,29,11,18,31.10
2009,07,29,11,19,31.20
2009,07,29,11,20,31.30
2009,07,29,11,21,31.40
2009,07,29,11,22,31.50
2009,07,29,11,23,31.60
2009,07,29,11,24,31.60
2009,07,29,11,25,31.60
2009,07,29,11,26,31.60
2009,07,29,11,27,31.70
2009,07,29,11,28,31.70
2009,07,29,11,29,31.80
2009,07,29,11,30,31.80
2009,07,29,11,31,31.80
2009,07,29,11,32,31.90
2009,07,29,11,33,31.90
2009,07,29,11,34,31.90
2009,07,29,11,35,31.90
2009,07,29,11,36,31.90
2009,07,29,11,37,31.90
2009,07,29,11,38,31.90
2009,07,29,11,39,31.90
2009,07,29,11,40,32.00
2009,07,29,11,41,32.00
2009,07,29,11,42,32.10
2009,07,29,11,43,32.10
2009,07,29,11,44,32.20
2009,07,29,11,45,32.20
2009,07,29,11,46,32.20
2009,07,29,11,47,32.20
2009,07,29,11,48,32.20
2009,07,29,11,49,32.30
2009,07,29,11,50,32.40
2009,07,29,11,51,32.50
2009,07,29,11,52,32.50
2009,07,29,11,53,32.60
2009,07,29,11,54,32.70
2009,07,29,11,55,32.80
2009,07,29,11,56,32.90
2009,07,29,11,57,32.90
2009,07,29,11,58,32.90
2009,07,29,11,59,32.90
2009,07,29,12,00,32.90
2009,07,29,12,01,33.00
2009,07,29,12,02,33.00
2009,07,29,12,03,33.10
2009,07,29,12,04,33.10
2009,07,29,12,05,33.10
2009,07,29,12,06,33.20
2009,07,29,12,07,33.20
2009,07,29,12,08,33.20
2009,07,29,12,09,33.30
2009,07,29,12,10,33.30
2009,07,29,12,11,33.40
2009,07,29,12,12,33.50
2009,07,29,12,13,33.60
2009,07,29,12,14,33.70
2009,07,29,12,15,33.70
2009,07,29,12,16,33.80
2009,07,29,12,17,33.90
2009,07,29,12,18,33.90
2009,07,29,12,19,34.00
2009,07,29,12,20,34.00
2009,07,29,12,21,34.00
2009,07,29,12,22,33.90
2009,07,29,12,23,33.80
2009,07,29,12,24,33.70
2009,07,29,12,25,33.70
2009,07,29,12,26,33.80
2009,07,29,12,27,33.80
2009,07,29,12,28,33.80
2009,07,29,12,29,33.70
2009,07,29,12,30,33.60
2009,07,29,12,31,33.60
2009,07,29,12,32,33.60
2009,07,29,12,33,33.60
2009,07,29,12,34,33.60
2009,07,29,12,35,33.60
2009,07,29,12,36,33.70
2009,07,29,12,37,33.70
2009,07,29,12,38,33.80
2009,07,29,12,39,33.80
2009,07,29,12,40,33.90
2009,07,29,12,41,33.90
2009,07,29,12,42,33.90
2009,07,29,12,43,33.90
2009,07,29,12,44,33.90
2009,07,29,12,45,33.90
2009,07,29,12,46,33.90
2009,07,29,12,47,33.80
2009,07,29,12,48,33.80
2009,07,29,12,49,33.80
2009,07,29,12,50,33.80
2009,07,29,12,51,33.80
2009,07,29,12,52,33.80
2009,07,29,12,53,33.70
2009,07,29,12,54,33.80
2009,07,29,12,55,33.70
2009,07,29,12,56,33.80
2009,07,29,12,57,33.80
2009,07,29,12,58,33.80
2009,07,29,12,59,33.80
2009,07,29,13,00,33.80
2009,07,29,13,01,33.80
2009,07,29,13,02,33.80
2009,07,29,13,03,33.80
2009,07,29,13,04,33.80
2009,07,29,13,05,33.80
2009,07,29,13,06,33.80
2009,07,29,13,07,33.90
2009,07,29,13,08,33.90
2009,07,29,13,09,33.90
2009,07,29,13,10,34.00
2009,07,29,13,11,34.00
2009,07,29,13,12,34.10
2009,07,29,13,13,34.10
2009,07,29,13,14,34.10
2009,07,29,13,15,34.20
2009,07,29,13,16,34.20
2009,07,29,13,17,34.20
2009,07,29,13,18,34.20
2009,07,29,13,19,34.20
2009,07,29,13,20,34.20
2009,07,29,13,21,34.20
2009,07,29,13,22,34.20
2009,07,29,13,23,34.30
2009,07,29,13,24,34.30
2009,07,29,13,25,34.40
2009,07,29,13,26,34.40
2009,07,29,13,27,34.40
2009,07,29,13,28,34.40
2009,07,29,13,29,34.40
2009,07,29,13,30,34.40
2009,07,29,13,31,34.40
2009,07,29,13,32,34.50
2009,07,29,13,33,34.50
2009,07,29,13,34,34.50
2009,07,29,13,35,34.40
2009,07,29,13,36,34.40
2009,07,29,13,37,34.50
2009,07,29,13,38,34.50
2009,07,29,13,39,34.70
2009,07,29,13,40,34.80
2009,07,29,13,41,34.90
2009,07,29,13,42,34.90
2009,07,29,13,43,34.80
2009,07,29,13,44,34.70
2009,07,29,13,45,34.70
2009,07,29,13,46,34.70
2009,07,29,13,47,34.70
2009,07,29,13,48,34.60
2009,07,29,13,49,34.60
2009,07,29,13,50,34.70
2009,07,29,13,51,34.70
2009,07,29,13,52,34.70
2009,07,29,13,53,34.70
2009,07,29,13,54,34.80
2009,07,29,13,55,34.90
2009,07,29,13,56,34.90
2009,07,29,13,57,35.00
2009,07,29,13,58,35.00
2009,07,29,13,59,35.10
2009,07,29,14,00,35.20
2009,07,29,14,01,35.20
2009,07,29,14,02,35.20
2009,07,29,14,03,35.20
2009,07,29,14,04,35.20
2009,07,29,14,05,35.30
2009,07,29,14,06,35.30
2009,07,29,14,07,35.20
2009,07,29,14,08,35.20
2009,07,29,14,09,35.20
2009,07,29,14,10,35.20
2009,07,29,14,11,35.20
2009,07,29,14,12,35.30
2009,07,29,14,13,35.30
2009,07,29,14,14,35.30
2009,07,29,14,15,35.20
2009,07,29,14,16,35.20
2009,07,29,14,17,35.20
2009,07,29,14,18,35.20
2009,07,29,14,19,35.30
2009,07,29,14,20,35.30
2009,07,29,14,21,35.30
2009,07,29,14,22,35.30
2009,07,29,14,23,35.30
2009,07,29,14,24,35.30
2009,07,29,14,25,35.20
2009,07,29,14,26,35.10
2009,07,29,14,27,35.10
2009,07,29,14,28,35.20
2009,07,29,14,29,35.20
2009,07,29,14,30,35.30
2009,07,29,14,31,35.30
2009,07,29,14,32,35.30
2009,07,29,14,33,35.30
2009,07,29,14,34,35.40
2009,07,29,14,35,35.50
2009,07,29,14,36,35.60
2009,07,29,14,37,35.60
2009,07,29,14,38,35.60
2009,07,29,14,39,35.60
2009,07,29,14,40,35.70
2009,07,29,14,41,35.80
2009,07,29,14,42,35.80
2009,07,29,14,43,35.90
2009,07,29,14,44,36.00
2009,07,29,14,45,36.10
2009,07,29,14,46,36.20
2009,07,29,14,47,36.30
2009,07,29,14,48,36.30
2009,07,29,14,49,36.40
2009,07,29,14,50,36.40
2009,07,29,14,51,36.50
2009,07,29,14,52,36.60
2009,07,29,14,53,36.70
2009,07,29,14,54,36.80
2009,07,29,14,55,36.90
2009,07,29,14,56,36.90
2009,07,29,14,57,37.00
2009,07,29,14,58,37.10
2009,07,29,14,59,37.10
2009,07,29,15,00,37.20
2009,07,29,15,01,37.20
2009,07,29,15,02,37.30
2009,07,29,15,03,37.40
2009,07,29,15,04,37.40
2009,07,29,15,05,37.50
2009,07,29,15,06,37.50
2009,07,29,15,07,37.60
2009,07,29,15,08,37.70
2009,07,29,15,09,37.70
2009,07,29,15,10,37.80
2009,07,29,15,11,37.80
2009,07,29,15,12,37.70
2009,07,29,15,13,37.70
2009,07,29,15,14,37.60
2009,07,29,15,15,37.50
2009,07,29,15,16,37.40
2009,07,29,15,17,37.40
2009,07,29,15,18,37.40
2009,07,29,15,19,37.40
2009,07,29,15,20,37.50
2009,07,29,15,21,37.40
2009,07,29,15,22,37.40
2009,07,29,15,23,37.50
2009,07,29,15,24,37.50
2009,07,29,15,25,37.40
2009,07,29,15,26,37.50
2009,07,29,15,27,37.50
2009,07,29,15,28,37.50
2009,07,29,15,29,37.40
2009,07,29,15,30,37.40
2009,07,29,15,31,37.40
2009,07,29,15,32,37.40
2009,07,29,15,33,37.40
2009,07,29,15,34,37.40
2009,07,29,15,35,37.40
2009,07,29,15,36,37.40
2009,07,29,15,37,37.50
2009,07,29,15,38,37.50
2009,07,29,15,39,37.60
2009,07,29,15,40,37.60
2009,07,29,15,41,37.60
2009,07,29,15,42,37.70
2009,07,29,15,43,37.70
2009,07,29,15,44,37.70
2009,07,29,15,45,37.80
2009,07,29,15,46,37.80
2009,07,29,15,47,37.80
2009,07,29,15,48,37.80
2009,07,29,15,49,37.80
2009,07,29,15,50,37.80
2009,07,29,15,51,37.80
2009,07,29,15,52,37.80
2009,07,29,15,53,37.80
2009,07,29,15,54,37.80
2009,07,29,15,55,37.80
2009,07,29,15,56,37.90
2009,07,29,15,57,37.90
2009,07,29,15,58,37.90
2009,07,29,15,59,37.90
2009,07,29,16,00,37.90
2009,07,29,16,01,37.90
2009,07,29,16,02,37.90
2009,07,29,16,03,37.80
2009,07,29,16,04,37.70
2009,07,29,16,05,37.60
2009,07,29,16,06,37.50
2009,07,29,16,07,37.40
2009,07,29,16,08,37.30
2009,07,29,16,09,37.20
2009,07,29,16,10,37.10
2009,07,29,16,11,37.00
2009,07,29,16,12,36.90
2009,07,29,16,13,36.90
2009,07,29,16,14,36.90
2009,07,29,16,15,36.80
2009,07,29,16,16,36.80
2009,07,29,16,17,36.90
2009,07,29,16,18,36.90
2009,07,29,16,19,36.80
2009,07,29,16,20,36.80
2009,07,29,16,21,36.80
2009,07,29,16,22,36.90
2009,07,29,16,23,36.90
2009,07,29,16,24,36.90
2009,07,29,16,25,36.90
2009,07,29,16,26,36.90
2009,07,29,16,27,37.00
2009,07,29,16,28,37.00
2009,07,29,16,29,37.00
2009,07,29,16,30,37.00
2009,07,29,16,31,36.90
2009,07,29,16,32,37.00
2009,07,29,16,33,37.00
2009,07,29,16,34,37.00
2009,07,29,16,35,37.10
2009,07,29,16,36,37.10
2009,07,29,16,37,37.10
2009,07,29,16,38,37.00
2009,07,29,16,39,37.00
2009,07,29,16,40,37.00
2009,07,29,16,41,37.00
2009,07,29,16,42,37.00
2009,07,29,16,43,37.10
2009,07,29,16,44,37.10
2009,07,29,16,45,37.20
2009,07,29,16,46,37.20
2009,07,29,16,47,37.30
2009,07,29,16,48,37.40
2009,07,29,16,49,37.40
2009,07,29,16,50,37.50
2009,07,29,16,51,37.60
2009,07,29,16,52,37.70
2009,07,29,16,53,37.80
2009,07,29,16,54,37.90
2009,07,29,16,55,38.00
2009,07,29,16,56,38.00
2009,07,29,16,57,38.10
2009,07,29,16,58,38.20
2009,07,29,16,59,38.20
2009,07,29,17,00,38.30
2009,07,29,17,01,38.30
2009,07,29,17,02,38.30
2009,07,29,17,03,38.40
2009,07,29,17,04,38.40
2009,07,29,17,05,38.40
2009,07,29,17,06,38.40
2009,07,29,17,07,38.40
2009,07,29,17,08,38.40
2009,07,29,17,09,38.40
2009,07,29,17,10,38.40
2009,07,29,17,11,38.30
2009,07,29,17,12,38.30
2009,07,29,17,13,38.20
2009,07,29,17,14,38.20
2009,07,29,17,15,38.20
2009,07,29,17,16,38.20
2009,07,29,17,17,38.20
2009,07,29,17,18,38.20
2009,07,29,17,19,38.20